Marianna, WV

7:28 PM EDT on August 25, 2016 (GMT -0400)
Pineville

Weather History for KI16 - November, 2013

Change the Weather History Date:

Wednesday, November 27, 2013

  Actual Average (KBKW) Record (KBKW)
Temperature  
Mean Temperature 30 °F 40 °F  
Max Temperature 35 °F 48 °F 74 °F (1990)
Min Temperature 24 °F 31 °F 1 °F (1930)
Degree Days  
Heating Degree Days 35 25  
Month to date heating degree days 555  
Since 1 July heating degree days 1061  
Cooling Degree Days 0 0  
Month to date cooling degree days 0  
Year to date cooling degree days 556  
Moisture  
Dew Point 27 °F    
Average Humidity 90    
Maximum Humidity 100    
Minimum Humidity 76    
Precipitation  
Precipitation 0.00 in 0.10 in 1.00 in (1921)
Month to date precipitation 2.64  
Year to date precipitation 37.88  
Snow  
Snow 0.00 in - - ()
Month to date snowfall  
Since 1 September snowfall  
Snow Depth -    
Sea Level Pressure  
Sea Level Pressure 29.96 in    
Wind  
Wind Speed - (North)    
Max Wind Speed -    
Max Gust Speed -    
Visibility 5 miles    
Events Snow    
T = Trace of Precipitation, MM = Missing Value Source: NWS Daily Summary

Daily Weather History Graph

Daily Weather History Graph

Search for Another Location

Airport or City:

Trip Planner

Search our weather history database for the weather conditions in past years. The results will help you decide how hot, cold, wet, or windy it might be!

Date:

Astronomy

Nov. 27, 2013 Rise Set
Actual Time 7:18 AM EST 5:08 PM EST
Civil Twilight 6:50 AM EST 5:37 PM EST
Nautical Twilight 6:17 AM EST 6:09 PM EST
Astronomical Twilight 5:46 AM EST 6:41 PM EST
Moon 1:25 AM EST (11/27) 1:39 PM EST (11/27)
Length of Visible Light 10h 47m
Length of Day
9h 50m
Waning Crescent, 32% of the Moon is Illuminated
Nov 27
Waning Crescent
Dec 2
New
Dec 9
First Quarter
Dec 17
Full
Dec 25
Last Quarter

Hourly Weather History & Observations

Time (EST) Temp. Dew Point Humidity Pressure Visibility Wind Dir Wind Speed Gust Speed Precip Events Conditions
12:15 AM 36.1 °F 36.0 °F 99% 29.80 in 7.0 mi North - - N/A   Overcast
12:35 AM 36.0 °F 35.6 °F 99% 29.81 in 10.0 mi North - - N/A   Overcast
12:55 AM 35.6 °F 35.1 °F 98% 29.80 in 3.0 mi North - - N/A Snow Light Snow
1:15 AM 34.9 °F 34.7 °F 99% 29.80 in 3.0 mi North - - N/A Snow Light Snow
1:35 AM 34.7 °F 34.7 °F 100% 29.80 in 2.0 mi North - - N/A Snow Light Snow
1:55 AM 34.5 °F 34.5 °F 100% 29.82 in 2.5 mi North - - N/A Snow Light Snow
2:15 AM 34.2 °F 34.2 °F 100% 29.81 in 1.8 mi North - - N/A Snow Light Snow
2:35 AM 34.0 °F 34.0 °F 100% 29.82 in 2.5 mi North - - N/A Snow Light Snow
2:55 AM 33.8 °F 33.8 °F 100% 29.81 in 2.0 mi North - - N/A Snow Light Snow
3:15 AM 33.4 °F 33.1 °F 99% 29.81 in 2.0 mi North - - N/A Snow Light Snow
3:35 AM 33.1 °F 32.7 °F 99% 29.81 in 2.5 mi North - - N/A Snow Light Snow
3:55 AM 32.9 °F 32.5 °F 99% 29.81 in 2.5 mi North - - N/A Snow Light Snow
4:15 AM 32.9 °F 32.4 °F 98% 29.81 in 2.0 mi North - - N/A Snow Light Snow
4:35 AM 32.5 °F 32.2 °F 99% 29.81 in 2.0 mi North - - N/A Snow Light Snow
4:55 AM 32.4 °F 32.0 °F 99% 29.82 in 2.5 mi North - - N/A Snow Light Snow
5:15 AM 32.2 °F 32.0 °F 99% 29.82 in 2.5 mi North - - N/A Snow Light Snow
5:35 AM 32.0 °F 32.0 °F 100% 29.83 in 1.8 mi North - - N/A Snow Light Snow
5:55 AM 32.0 °F 31.6 °F 99% 29.83 in 1.8 mi North - - N/A Snow Light Snow
6:15 AM 32.0 °F 31.5 °F 98% 29.83 in 1.2 mi North - - N/A Snow Light Snow
6:35 AM 32.0 °F 31.3 °F 97% 29.84 in 1.2 mi North - - N/A Snow Snow
6:55 AM 31.8 °F 31.5 °F 99% 29.84 in 1.0 mi North - - N/A Snow Snow
7:15 AM 31.6 °F 31.5 °F 99% 29.83 in 2.0 mi North - - N/A Snow Light Snow
7:35 AM 31.6 °F 31.1 °F 98% 29.85 in 1.5 mi North - - N/A Snow Light Snow
7:55 AM 31.6 °F 31.3 °F 99% 29.86 in 1.2 mi North - - N/A Snow Light Snow
8:15 AM 31.5 °F 31.1 °F 99% 29.86 in 0.8 mi North - - N/A Snow Light Snow
8:35 AM 31.6 °F 30.7 °F 96% 29.86 in 1.8 mi North - - N/A Snow Light Snow
8:55 AM 31.8 °F 30.6 °F 95% 29.87 in 1.5 mi North - - N/A Snow Light Snow
9:15 AM 31.6 °F 30.2 °F 94% 29.87 in 2.0 mi North - - N/A Snow Light Snow
9:35 AM 31.6 °F 30.2 °F 94% 29.87 in 1.5 mi North - - N/A Snow Light Snow
9:55 AM 31.1 °F 30.0 °F 96% 29.87 in 3.0 mi North - - N/A Snow Light Snow
10:15 AM 31.6 °F 29.1 °F 90% 29.87 in 5.0 mi North - - N/A   Overcast
10:35 AM 31.1 °F 29.3 °F 93% 29.87 in 5.0 mi North - - N/A   Overcast
10:55 AM 31.1 °F 28.2 °F 89% 29.87 in 10.0 mi North - - N/A   Overcast
11:15 AM 30.2 °F 28.2 °F 92% 29.87 in 5.0 mi North - - N/A Snow Light Snow
11:35 AM 29.8 °F 27.0 °F 89% 29.88 in 4.0 mi North - - N/A Snow Light Snow
11:55 AM 29.5 °F 24.4 °F 81% 29.88 in 7.0 mi North - - N/A   Overcast
12:15 PM 28.9 °F 25.2 °F 86% 29.89 in 3.0 mi North - - N/A Snow Light Snow
12:35 PM 29.3 °F 24.1 °F 81% 29.89 in 5.0 mi North - - N/A Snow Light Snow
12:55 PM 28.4 °F 23.5 °F 82% 29.90 in 5.0 mi North - - N/A Snow Light Snow
1:15 PM 28.4 °F 23.7 °F 83% 29.91 in 5.0 mi North - - N/A Snow Light Snow
1:35 PM 28.4 °F 23.9 °F 83% 29.91 in 7.0 mi North - - N/A Snow Light Snow
1:55 PM 28.2 °F 24.1 °F 84% 29.92 in 4.0 mi North - - N/A Snow Light Snow
2:15 PM 28.0 °F 23.7 °F 84% 29.93 in 7.0 mi North - - N/A Snow Light Snow
2:35 PM 27.9 °F 23.0 °F 82% 29.94 in 7.0 mi North - - N/A Snow Light Snow
2:55 PM 27.5 °F 22.6 °F 82% 29.95 in 7.0 mi North - - N/A Snow Light Snow
3:15 PM 27.1 °F 22.6 °F 83% 29.97 in 1.5 mi North - - N/A Snow Light Snow
3:35 PM 27.0 °F 23.9 °F 88% 29.98 in 2.0 mi North - - N/A Snow Light Snow
3:55 PM 27.3 °F 23.4 °F 85% 30.00 in 5.0 mi North - - N/A Snow Light Snow
4:15 PM 26.6 °F 23.9 °F 90% 30.01 in 0.8 mi North - - N/A Snow Light Snow
4:35 PM 26.2 °F 24.8 °F 94% 30.03 in 1.0 mi North - - N/A Snow Light Snow
4:55 PM 26.6 °F 22.3 °F 84% 30.04 in 10.0 mi North - - N/A   Overcast
5:15 PM 26.4 °F 21.6 °F 82% 30.05 in 5.0 mi North - - N/A Snow Light Snow
5:35 PM 26.4 °F 21.4 °F 81% 30.07 in 7.0 mi North - - N/A   Overcast
5:55 PM 26.1 °F 22.8 °F 88% 30.09 in 2.0 mi North - - N/A Snow Light Snow
6:15 PM 25.7 °F 23.0 °F 89% 30.10 in 5.0 mi North - - N/A Snow Light Snow
6:35 PM 25.3 °F 21.9 °F 87% 30.11 in 10.0 mi North - - N/A   Overcast
6:55 PM 25.7 °F 21.2 °F 83% 30.12 in 5.0 mi North - - N/A Snow Light Snow
7:15 PM 24.8 °F 21.9 °F 89% 30.14 in 3.0 mi North - - N/A Snow Light Snow
7:35 PM 25.3 °F 19.4 °F 78% 30.15 in 7.0 mi North - - N/A Snow Light Snow
7:55 PM 25.3 °F 18.9 °F 76% 30.15 in 10.0 mi North - - N/A Snow Light Snow
8:15 PM 25.2 °F 19.2 °F 78% 30.16 in 10.0 mi North - - N/A   Overcast
8:35 PM 25.3 °F 18.7 °F 76% 30.17 in 10.0 mi North - - N/A   Overcast
8:55 PM 25.3 °F 18.9 °F 76% 30.18 in 10.0 mi North - - N/A   Overcast
9:15 PM 25.3 °F 19.2 °F 78% 30.19 in 10.0 mi North - - N/A Snow Light Snow
9:35 PM 25.3 °F 19.0 °F 77% 30.20 in 10.0 mi North - - N/A   Overcast
9:55 PM 24.8 °F 20.3 °F 83% 30.21 in 5.0 mi North - - N/A Snow Light Snow
10:15 PM 24.8 °F 21.0 °F 86% 30.22 in 10.0 mi North - - N/A Snow Light Snow
10:35 PM 24.8 °F 20.8 °F 85% 30.22 in 7.0 mi North - - N/A Snow Light Snow
10:55 PM 24.8 °F 20.3 °F 83% 30.23 in 10.0 mi North - - N/A   Overcast
11:15 PM 24.8 °F 20.7 °F 84% 30.23 in 10.0 mi North - - N/A   Overcast
11:35 PM 25.2 °F 20.5 °F 82% 30.24 in 10.0 mi North - - N/A Snow Light Snow
11:55 PM 25.2 °F 21.2 °F 85% 30.25 in 10.0 mi North - - N/A Snow Light Snow